Regional Weather Roundup
Issued by NWS

Home | Current Version | Previous Version | Graphics & Text | Print | Product List | Glossary On
Versions: 1 2 3 4 5 6 7 8 9 10 11 12 13 14 15 16 17 18 19 20 21 22 23 24 25 26 27 28 29 30 31 32 33 34 35 36 37 38 39 40 41 42 43 44 45 46 47 48 49 50
000
ASUS43 KMKX 191159
RWRWI

WISCONSIN REGIONAL WEATHER ROUNDUP
NATIONAL WEATHER SERVICE MILWAUKEE/SULLIVAN WI
600 AM CST FRI JAN 19 2018

NOTE: "FAIR" INDICATES FEW OR NO CLOUDS BELOW 12,000 FEET WITH NO
SIGNIFICANT WEATHER AND/OR OBSTRUCTIONS TO VISIBILITY.

WIZ001-002-006>008-014>016-023>028-191300-
NORTHWEST WISCONSIN

CITY           SKY/WX    TMP DP  RH WIND       PRES   REMARKS
SUPERIOR ARPT  FAIR      27  24  90 SW6       29.55F WCI  20
ASHLAND        NOT AVBL
HAYWARD        FAIR      24  21  88 S7        29.60F WCI  16
6HR MIN TEMP:  17; 6HR MAX TEMP:  27;

SIREN          FAIR      29  26  90 S6        29.60F WCI  23
CUMBERLAND     FAIR      25  23  93 S5        29.64S WCI  19
RICE LAKE      FAIR      24  23  93 SE5       29.66F WCI  19
CHETEK         FAIR      20  19  94 E5        29.65F WCI  14
LADYSMITH      FAIR      24  22  89 S5        29.67S WCI  19
EAU CLAIRE     NOT AVBL
MENOMONIE      FAIR      27  22  84 SE7       29.67F WCI  19
NEW RICHMOND   FAIR      28  23  82 S6        29.64F WCI  21
OSCEOLA        FAIR      28  25  86 S7        29.67S WCI  21
$$

WIZ003>005-009-010-017-018-191300-
NORTH CENTRAL WISCONSIN

CITY           SKY/WX    TMP DP  RH WIND       PRES   REMARKS
MANITOWISH WTR FAIR      24  24 100 S6        29.60F WCI  17
ARBOR VITAE    FAIR      24  22  94 S6        29.61F WCI  17
WOODRUFF       FAIR      24  22  94 S6        29.61F WCI  17
RHINELANDER    FAIR      23  21  92 SW8       29.63F WCI  14
6HR MIN TEMP:  23; 6HR MAX TEMP:  26;

EAGLE RIVER    FAIR      22  22 100 SW3       29.61F
6HR MIN TEMP:  14; 6HR MAX TEMP:  23;

LAND O LAKES   FAIR      22  21  96 CALM      29.62F
PHILLIPS       FAIR      23  22  96 SW6       29.63F WCI  16
6HR MIN TEMP:  19; 6HR MAX TEMP:  25;

TOMAHAWK       FAIR      21  19  93 CALM      29.66F
MEDFORD        FAIR      22  19  89 S6        29.66F WCI  14
MERRILL        FAIR      15  13  93 CALM      29.68F
6HR MIN TEMP:  12; 6HR MAX TEMP:  23;

$$

WIZ029-030-035-036-043>047-191300-
CENTRAL WISCONSIN

CITY           SKY/WX    TMP DP  RH WIND       PRES   REMARKS
WAUSAU         FAIR      23  19  85 CALM      29.68S
6HR MIN TEMP:  23; 6HR MAX TEMP:  26;

MOSINEE        CLEAR     18  18 100 S6        29.70F WCI   9
MARSHFIELD     FAIR      23  19  85 SW8       29.68F WCI  14
6HR MIN TEMP:  21; 6HR MAX TEMP:  26;

STEVENS POINT  FAIR      19  18  94 S5        29.72S WCI  12
WAUPACA        FAIR      23  18  81 S6        29.74F WCI  16
WAUTOMA        FAIR      21  17  84 S5        29.76F WCI  15
6HR MIN TEMP:  19; 6HR MAX TEMP:  24;

WISC RAPIDS    FAIR      24  18  77 SW7       29.73F WCI  16
6HR MIN TEMP:  21; 6HR MAX TEMP:  24;

CAMP DOUGLAS   FAIR      25  20  79 SE5       29.74F WCI  20
6HR MIN TEMP:  22; 6HR MAX TEMP:  28;

$$

WIZ011>013-019>022-031-037>040-048>050-191300-
NORTHEAST WISCONSIN

CITY           SKY/WX    TMP DP  RH WIND       PRES   REMARKS
ANTIGO         FAIR      17  16  96 SW3       29.67F
SHAWANO        FAIR      24  19  80 CALM      29.72F
6HR MIN TEMP:  24; 6HR MAX TEMP:  27;

OCONTO         FAIR      19  17  89 CALM      29.73F
STURGEON BAY   FAIR      23  18  81 S8        29.74F WCI  14
6HR MIN TEMP:  23; 6HR MAX TEMP:  28;

GREEN BAY      FAIR      22  16  78 S12       29.75F WCI  10
6HR MIN TEMP:  22; 6HR MAX TEMP:  23;

MANITOWOC      FAIR      23  18  81 S7        29.78F WCI  15
6HR MIN TEMP:  23; 6HR MAX TEMP:  29;

APPLETON       PTCLDY    21  16  79 SW8       29.74S WCI  12
CLINTONVILLE   FAIR      21  18  86 S5        29.73F WCI  15
OSHKOSH        FAIR      23  18  81 SW10      29.76F WCI  12
6HR MIN TEMP:  20; 6HR MAX TEMP:  24;

$$

WIZ032>034-041-042-053>061-191300-
SOUTHWEST WISCONSIN

CITY           SKY/WX    TMP DP  RH WIND       PRES   REMARKS
LA CROSSE      FAIR      28  20  71 S13       29.76F WCI  17
6HR MIN TEMP:  25; 6HR MAX TEMP:  28;

SPARTA         FAIR      27  22  81 S5        29.75F WCI  21
VIROQUA        FAIR      24  22  91 S6        29.75F WCI  17
BOSCOBEL       FAIR      22  18  85 SW3       29.80F
6HR MIN TEMP:  18; 6HR MAX TEMP:  26;

PRAIRIE DU CHI FAIR      23  17  77 CALM      29.80F
PLATTEVILLE    FAIR      23  20  89 S9        29.82F WCI  13
$$

WIZ056-057-062-063-064-067-068-191300-
SOUTH CENTRAL WISCONSIN

CITY           SKY/WX    TMP DP  RH WIND       PRES   REMARKS
REEDSBURG      FAIR      26  20  79 SW7       29.78S WCI  18
BARABOO/DELLS  FAIR      26  19  76 SW8       29.77S WCI  17
LONE ROCK      FAIR      17  14  88 CALM      29.82S
6HR MIN TEMP:  12; 6HR MAX TEMP:  21;

MINERAL POINT  FAIR      25  23  93 S5        29.80F WCI  19
MADISON        MOCLDY    25  19  78 S9        29.81F WCI  15
6HR MIN TEMP:  25; 6HR MAX TEMP:  28;

MIDDLETON      FAIR      28  21  76 W3        29.81F
WATERTOWN      NOT AVBL
MONROE         FAIR      27  21  80 SW15      29.81F WCI  15
JANESVILLE     FAIR      27  19  74 SW6       29.85R WCI  20
$$

WIZ051-052-058>065-066-070>072-191300-
SOUTHEAST WISCONSIN

CITY           SKY/WX    TMP DP  RH WIND       PRES   REMARKS
MILWAUKEE      FAIR      28  20  71 SW8       29.83F WCI  20
6HR MIN TEMP:  28; 6HR MAX TEMP:  31;

WAUKESHA       CLEAR     27  18  69 SW12      29.83S WCI  16
MILWAUKEE/TIMM FAIR      28  19  69 SW9       29.83S WCI  20
RACINE         FAIR      28  20  71 SW10      29.86S WCI  19
6HR MIN TEMP:  28; 6HR MAX TEMP:  30;

BURLINGTON     FAIR      26  19  74 SW5       29.86R WCI  20
KENOSHA        FAIR      29  19  66 SW9       29.86R WCI  20
6HR MIN TEMP:  29; 6HR MAX TEMP:  30;

FOND DU LAC    FAIR      25  17  72 SW12      29.78F WCI  14
6HR MIN TEMP:  24; 6HR MAX TEMP:  26;

SHEBOYGAN      FAIR      24  19  81 SW8       29.78S WCI  15
6HR MIN TEMP:  23; 6HR MAX TEMP:  28;

WEST BEND      FAIR      27  21  80 SW9       29.80S WCI  17
JUNEAU         FAIR      22  18  85 S9        29.81F WCI  12
$$

LSZ147-162-191300-
LAKE SUPERIOR

STATION/POSITION TIME  TEMP    WIND        PRES    WAVE
                       AIR SEA DIR/SP/G            HT/PER
                 (UTC) (F)     (DEG/KT/KT) (MB)    (FT/S)
DEVILS ISLAND    1100   30     180/  5/  7 1001.9F
SAXON HARBOR     1130   32     170/  3/  8 1001.0F
$$

LMZ867-665-643>646-191300-
LAKE MICHIGAN

STATION/POSITION TIME  TEMP    WIND        PRES    WAVE
                       AIR SEA DIR/SP/G            HT/PER
                 (UTC) (F)     (DEG/KT/KT) (MB)    (FT/S)
NORTHPORT PIER   1140   27     180/  2/  5 1006.4S
KEWAUNEE LAKESHO 1130   25     200/  5/  7 1007.3S
SHEBOYGAN LAKESH 1100   27     190/ 12/ 13 1009.5F
PORT WASHINGTON  1130   27     190/  6/  8 1010.8S
MILWAUKEE LAKESH 1130   30     240/  9/ 10   N/A
KENOSHA   LAKESH 1100   31     210/  6/ 12 1011.5
$$

TC  - TEMPERATURE IN CELSIUS
VSB - VISIBILITY IN STATUTE MILES
WCI - WIND CHILL INDEX
HX  - HEAT INDEX





USA.gov is the U.S. government's official web portal to all federal, state and local government web resources and services.